OBJECT AH, 43789

Orbit data source: Space-Track

You're viewing an Uncataloged Satellite

Recently launched and/or uncataloged satellites may have evolving metadata. Metadata may include but not limited to: Owner, Maufacturer, Bus, Motor, and Mission.

OBJECT AH, 43789 is a satellite in SSO that was launched on Mon, 03 Dec 2018 UTC via an FALCON 9 launch vehicle from the Air Force Western Test Range (AFWTR). Unknown objects in Earth's orbit typically refer to objects detected orbiting the Earth but have not yet been identified or cataloged. These objects could be anything from previously untracked satellites, spent rocket stages, debris from satellite collisions, or even natural meteoroids temporarily captured by Earth's gravity.

Loading next visibility...
Identifier
43789, 2018-099AH
Orbit
SSO
Last TLE update
9 hours ago
Origin
Flag of TBDIrvine Public Schools Foundation (TBD)
Manufacturer
IPSF
Mission
Non-operational Amateur Technology
Bus & Motor
CUBESAT 1U, Unknown motor
Mass
1 kg wet, 1 kg dry
Launch date (UTC)
2018-12-03 (7 years ago)
Launch vehicle
FALCON 9
Launch site
Air Force Western Test Range (AFWTR)
Object type
Unknown
Shape & HBR
Box + 2 Pan, 0.2 m
Radar Cross Section
0.019 m², Small (<0.1 m²)

Expand to show TLE details & history

TLE from 9 hours ago
0 OBJECT AH
1 43789U 18099AH  25191.70688332  .00018036  00000-0  46233-3 0  9992
2 43789  97.4644 260.2069 0008519  39.1883 320.9978 15.39386619361792
Epoch: 2025-07-10T16:57Z
TLE epoch observation values (Epoch: 2025-07-10T16:57:54.718Z)
Latitude
-0.00003°
Longitude
76.85961°
Altitude
446.519 km
Speed
7.647 km/s
True Right ascension
17h 20m 49s
True Declination
0° 00' 00"
Sunlit
Object was in full shadow at epoch
Visualization orbit readout
Latitude
-22.83928°
Longitude
80.39853°
Altitude
453.744 km
Speed
7.641 km/s
Apparent Right ascension
20h 57m 12s
Apparent Declination
-55° 40' 25"
Sunlit
Object is in full shadow
Visualization observer readout
Local Sidereal Time
14:30:06
Azimuth
136.531° SSE
Elevation
-35.516°
Doppler factor
1
Orbital elements
Apogee altitude
450.677 km
Perigee altitude
439.052 km
Semi-major axis
6,823.002 km
Eccentricity
0.00085
Inclination
97.4644°
RAAN
260.2069°
Arg. of periapsis
39.1883°
True anomaly
Unknown
Mean anomaly
320.9978°
Eccentric anomaly
Unknown
Mean motion
3.85106 °/min
Orbital period
93.48 mins
BSTAR
0.00046233
Loading maneuver chart data...
Loading SW <> Apogee altitude chart data...
Loading historical data...
Loading historical data...
Loading historical data...
Loading historical data...
Loading historical data...
Loading historical data...
Loading historical data...

OBJECT AH Visibility forecast

Observer location: undefined°, undefined°

Span
Click to sort rows by Start time (UTC) header in descending order
Start Az.
Max El. time (UTC)
Max El. Az.
Max El.
End time (UTC)
End Az.
5 mins2025-07-11 04:01:34.958Z126.157° SE2025-07-11 04:03:34.958Z86.797° E22.745°2025-07-11 04:06:34.958Z16.551° NNE
4 mins2025-07-11 16:56:34.958Z46.987° ENE2025-07-11 16:58:34.958Z100.777° ESE25.888°2025-07-11 17:00:34.958Z150.494° SSE
|